Flag for Ireland Weather past 2 weeks in Dublin, Ireland

Now
54 °F

Passing clouds.


Feels Like: 51 °F
Forecast: 57 / 66 °F
Wind: 9 mph from Northeast

Location: Dublin Airport

Current Time: Sep 18, 2014 at 12:55:27 AM

Latest Report: Sep 18, 2014 at 12:30 AM


Visibility: 4 mi

Pressure: 29.89 "Hg

Humidity: 100%

Dew point: 54 °F

Location of DublinLocation

Historic Weather in Dublin — Graph

°F

Dublin temperature yesterday

Maximum temperature yesterday: 63 °F (at 2:30 PM)
Minimum temperature yesterday: 54 °F (at 12:30 AM)
Average temperature yesterday: 58 °F

Past Weeks' High & Low Weather Summary

 TemperatureHumidityPressure
High72 °F (Sep 4, 2:00 PM)100% (Sep 3, 12:00 AM)30.33 "Hg (Sep 3, 12:00 AM)
Low39 °F (Sep 8, 2:00 AM)55% (Sep 8, 2:00 PM)29.89 "Hg (Sep 17, 7:00 PM)
Average56 °F87%30.13 "Hg
* Reported Midnight between Sep 2 and Sep 3 — Midnight between Sep 17 and Sep 18, Dublin, Weather by CustomWeather, © 2014

Note: Actual official high and low records may vary slightly from our data, if they occured in-between our weather recording intervals... More about our weather records

Advertising

Dublin weather history for previous 24 hours

 ConditionsComfort  
Time TempWeatherWind HumidityBarometerVisibility
12:00 AM
Sep 18
55 °FPassing clouds.6 mph94%29.89 "Hg4 mi
11:30 PM
Sep 17
55 °FPassing clouds.8 mph100%29.89 "Hg4 mi
11:00 PM55 °FPassing clouds.8 mph100%29.92 "Hg4 mi
10:30 PM57 °FPassing clouds.8 mph94%29.92 "Hg4 mi
10:00 PM57 °FPassing clouds.9 mph94%29.92 "Hg4 mi
9:30 PM55 °FPassing clouds.8 mph94%29.92 "Hg4 mi
9:00 PM55 °FPassing clouds.7 mph94%29.92 "Hg5 mi
8:30 PM55 °FPartly sunny.8 mph94%29.92 "Hg5 mi
8:00 PM55 °FPartly sunny.8 mph94%29.92 "Hg4 mi
7:30 PM57 °FPartly sunny.8 mph88%29.89 "Hg5 mi
7:00 PM57 °FPartly sunny.9 mph94%29.89 "Hg5 mi
6:30 PM59 °FPartly sunny.10 mph88%29.92 "Hg5 mi
6:00 PM59 °FPartly sunny.10 mph88%29.92 "Hg5 mi
5:30 PM61 °FBroken clouds.12 mph83%29.92 "Hg5 mi
5:00 PM61 °FPartly sunny.13 mph83%29.92 "Hg5 mi
4:30 PM61 °FBroken clouds.12 mph83%29.92 "Hg5 mi
4:00 PM61 °FBroken clouds.13 mph83%29.92 "Hg4 mi
3:30 PM63 °FBroken clouds.14 mph83%29.92 "Hg4 mi
3:00 PM63 °FBroken clouds.13 mph83%29.92 "Hg4 mi
2:30 PM63 °FBroken clouds.15 mph83%29.92 "Hg4 mi
2:00 PM61 °FBroken clouds.14 mph88%29.92 "Hg4 mi
1:30 PM61 °FBroken clouds.14 mph88%29.92 "Hg4 mi
1:00 PM61 °FFog.14 mph88%29.92 "Hg3 mi
12:30 PM61 °FFog.14 mph88%29.92 "Hg3 mi
12:00 PM59 °FFog.14 mph94%29.95 "Hg3 mi
11:30 AM59 °FFog.14 mph94%29.95 "Hg3 mi
11:00 AM59 °FFog.13 mph94%29.95 "Hg3 mi
10:30 AM59 °FBroken clouds.12 mph94%29.95 "Hg4 mi
10:00 AM59 °FBroken clouds.10 mph94%29.95 "Hg4 mi
9:30 AM59 °FFog.12 mph94%29.95 "Hg2 mi
9:00 AM59 °FFog.12 mph94%29.95 "Hg2 mi
8:30 AM59 °FFog.12 mph94%29.92 "Hg1 mi
8:00 AM59 °FFog.10 mph94%29.92 "Hg1 mi
7:30 AM59 °FFog.9 mph94%29.92 "Hg1 mi
7:00 AM59 °FFog.9 mph100%29.92 "Hg1 mi
6:30 AM59 °FFog.7 mph100%29.92 "Hg1 mi
6:00 AM59 °FFog.9 mph100%29.92 "Hg1 mi
5:30 AM59 °FFog.9 mph100%29.92 "Hg2 mi
5:00 AM59 °FSprinkles. Partly cloudy.8 mph94%29.92 "Hg4 mi
4:30 AM59 °FPartly cloudy.3 mph94%29.92 "Hg4 mi
4:00 AM57 °FSprinkles. Partly cloudy.2 mph100%29.92 "Hg4 mi
3:30 AM57 °FPassing clouds.3 mph100%29.92 "Hg4 mi
3:00 AM57 °FSprinkles. Partly cloudy.7 mph100%29.92 "Hg5 mi
2:30 AM54 °FFog.3 mph100%29.92 "Hg5 mi
2:00 AM54 °FPassing clouds.3 mph100%29.92 "Hg5 mi
1:30 AM54 °FPassing clouds.2 mph100%29.95 "Hg5 mi
1:00 AM55 °FFog.3 mph94%29.92 "Hg5 mi
12:30 AM54 °FFog.3 mph100%29.95 "Hg4 mi
12:00 AM55 °FPassing clouds.2 mph94%29.95 "Hg5 mi
Weather by CustomWeather, © 2014

See weather overviewHow to use our weather pages